Time,TemperatureF,DewpointF,PressureIn,WindDirection,WindDirectionDegrees,WindSpeedMPH,WindSpeedGustMPH,Humidity,HourlyPrecipIn,Conditions,Clouds,dailyrainin,SoftwareType,DateUTC
2013-03-10 00:01:00,54.0,47.0,30.18,ENE,60,2.0,2.0,77,0.00,,,0.00,,2013-03-10 05:01:00,
2013-03-10 00:11:00,54.0,47.0,30.18,ENE,60,2.0,2.0,77,0.00,,,0.00,,2013-03-10 05:11:00,
2013-03-10 00:22:00,54.0,47.0,30.18,ENE,60,2.0,2.0,77,0.00,,,0.00,,2013-03-10 05:22:00,
2013-03-10 00:32:00,54.0,47.0,30.18,ENE,60,2.0,2.0,77,0.00,,,0.00,,2013-03-10 05:32:00,
2013-03-10 00:42:00,54.0,47.0,30.18,ENE,60,2.0,2.0,77,0.00,,,0.00,,2013-03-10 05:42:00,
2013-03-10 00:52:00,54.0,47.0,30.18,ENE,60,2.0,2.0,77,0.00,,,0.00,,2013-03-10 05:52:00,
2013-03-10 01:01:00,54.0,47.0,30.18,ENE,60,2.0,2.0,77,0.00,,,0.00,,2013-03-10 06:01:00,
2013-03-10 01:11:00,54.0,47.0,30.18,ENE,60,2.0,2.0,78,0.00,,,0.00,,2013-03-10 06:11:00,
2013-03-10 01:22:00,54.0,47.0,30.18,ENE,60,2.0,2.0,78,0.00,,,0.00,,2013-03-10 06:22:00,
2013-03-10 01:32:00,54.0,47.0,30.18,ENE,60,2.0,2.0,78,0.00,,,0.00,,2013-03-10 06:32:00,
2013-03-10 01:42:00,54.0,47.0,30.18,ENE,60,2.0,2.0,78,0.00,,,0.00,,2013-03-10 06:42:00,
2013-03-10 01:51:00,54.0,47.0,30.18,ENE,60,2.0,2.0,78,0.00,,,0.00,,2013-03-10 06:51:00,
2013-03-10 03:02:00,54.0,47.0,30.18,ENE,60,2.0,2.0,78,0.00,,,0.00,,2013-03-10 07:02:00,
2013-03-10 03:11:00,53.0,47.0,30.18,ENE,60,2.0,2.0,79,0.00,,,0.00,,2013-03-10 07:11:00,
2013-03-10 03:21:00,53.0,47.0,30.18,ENE,60,2.0,2.0,79,0.00,,,0.00,,2013-03-10 07:21:00,
2013-03-10 03:32:00,53.0,47.0,30.18,ENE,60,2.0,2.0,79,0.00,,,0.00,,2013-03-10 07:32:00,
2013-03-10 03:42:00,53.0,47.0,30.15,ENE,60,2.0,2.0,80,0.00,,,0.00,,2013-03-10 07:42:00,
2013-03-10 03:52:00,53.0,47.0,30.15,ENE,60,2.0,2.0,80,0.00,,,0.00,,2013-03-10 07:52:00,
2013-03-10 04:01:00,53.0,47.0,30.15,ENE,60,2.0,2.0,81,0.00,,,0.00,,2013-03-10 08:01:00,
2013-03-10 04:11:00,53.0,47.0,30.15,ENE,60,2.0,2.0,81,0.00,,,0.00,,2013-03-10 08:11:00,
2013-03-10 04:21:00,53.0,47.0,30.15,ENE,60,2.0,2.0,81,0.00,,,0.00,,2013-03-10 08:21:00,
2013-03-10 04:31:00,53.0,47.0,30.15,ENE,60,2.0,2.0,81,0.00,,,0.00,,2013-03-10 08:31:00,
2013-03-10 04:42:00,52.0,46.0,30.15,ENE,60,2.0,2.0,81,0.00,,,0.00,,2013-03-10 08:42:00,
2013-03-10 04:51:00,52.0,46.0,30.15,ENE,60,2.0,2.0,81,0.00,,,0.00,,2013-03-10 08:51:00,
2013-03-10 05:01:00,52.0,47.0,30.15,ENE,60,2.0,2.0,82,0.00,,,0.00,,2013-03-10 09:01:00,
2013-03-10 05:11:00,52.0,47.0,30.15,ENE,60,2.0,2.0,82,0.00,,,0.00,,2013-03-10 09:11:00,
2013-03-10 05:21:00,52.0,47.0,30.15,ENE,60,2.0,2.0,82,0.00,,,0.00,,2013-03-10 09:21:00,
2013-03-10 05:31:00,52.0,47.0,30.15,ENE,60,2.0,2.0,82,0.00,,,0.00,,2013-03-10 09:31:00,
2013-03-10 05:41:00,52.0,47.0,30.15,ENE,60,2.0,2.0,82,0.00,,,0.00,,2013-03-10 09:41:00,
2013-03-10 05:51:00,52.0,47.0,30.15,ENE,60,2.0,2.0,82,0.00,,,0.00,,2013-03-10 09:51:00,
2013-03-10 06:01:00,52.0,47.0,30.15,ENE,60,2.0,2.0,82,0.00,,,0.00,,2013-03-10 10:01:00,
2013-03-10 06:11:00,52.0,47.0,30.15,ENE,60,2.0,2.0,82,0.00,,,0.00,,2013-03-10 10:11:00,
2013-03-10 06:21:00,52.0,47.0,30.15,ENE,60,2.0,2.0,83,0.00,,,0.00,,2013-03-10 10:21:00,
2013-03-10 06:32:00,52.0,47.0,30.15,ENE,60,2.0,2.0,83,0.00,,,0.00,,2013-03-10 10:32:00,
2013-03-10 06:42:00,52.0,47.0,30.15,ENE,60,2.0,2.0,84,0.00,,,0.00,,2013-03-10 10:42:00,
2013-03-10 06:52:00,52.0,47.0,30.15,ENE,60,2.0,2.0,84,0.00,,,0.00,,2013-03-10 10:52:00,
2013-03-10 07:01:00,52.0,47.0,30.15,ENE,60,2.0,2.0,84,0.00,,,0.00,,2013-03-10 11:01:00,
2013-03-10 07:12:00,52.0,47.0,30.15,ENE,60,2.0,2.0,84,0.00,,,0.00,,2013-03-10 11:12:00,
2013-03-10 07:21:00,52.0,47.0,30.15,ENE,60,2.0,2.0,84,0.00,,,0.00,,2013-03-10 11:21:00,
2013-03-10 07:32:00,52.0,47.0,30.15,ENE,60,2.0,2.0,84,0.00,,,0.00,,2013-03-10 11:32:00,
2013-03-10 07:42:00,52.0,47.0,30.15,ENE,60,2.0,2.0,84,0.00,,,0.00,,2013-03-10 11:42:00,
2013-03-10 07:52:00,53.0,48.0,30.15,ENE,60,2.0,2.0,84,0.00,,,0.00,,2013-03-10 11:52:00,
2013-03-10 08:01:00,53.0,48.0,30.15,NE,50,1.0,0.0,84,0.00,,,0.00,,2013-03-10 12:01:00,
2013-03-10 08:11:00,53.0,48.0,30.15,NE,50,1.0,0.0,84,0.00,,,0.00,,2013-03-10 12:11:00,
2013-03-10 08:21:00,53.0,48.0,30.18,NE,50,0.0,0.0,84,0.00,,,0.00,,2013-03-10 12:21:00,
2013-03-10 08:31:00,53.0,48.0,30.18,NE,50,0.0,0.0,84,0.00,,,0.00,,2013-03-10 12:31:00,
2013-03-10 08:42:00,53.0,48.0,30.18,NE,50,0.0,0.0,84,0.00,,,0.00,,2013-03-10 12:42:00,
2013-03-10 08:51:00,53.0,48.0,30.18,NE,50,0.0,0.0,84,0.00,,,0.00,,2013-03-10 12:51:00,
2013-03-10 09:01:00,54.0,49.0,30.21,NE,50,0.0,0.0,84,0.00,,,0.00,,2013-03-10 13:01:00,
2013-03-10 09:11:00,54.0,49.0,30.21,NE,50,0.0,0.0,84,0.00,,,0.00,,2013-03-10 13:11:00,
2013-03-10 09:21:00,54.0,49.0,30.21,NE,50,0.0,0.0,84,0.00,,,0.00,,2013-03-10 13:21:00,
2013-03-10 09:31:00,55.0,50.0,30.21,NW,315,0.0,0.0,84,0.00,,,0.00,,2013-03-10 13:31:00,
2013-03-10 09:41:00,55.0,50.0,30.21,NW,315,0.0,0.0,84,0.00,,,0.00,,2013-03-10 13:41:00,
2013-03-10 09:52:00,55.0,50.0,30.21,NW,325,0.0,0.0,84,0.00,,,0.00,,2013-03-10 13:52:00,
2013-03-10 10:01:00,57.0,52.0,30.18,NE,35,0.0,0.0,82,0.00,,,0.00,,2013-03-10 14:01:00,
2013-03-10 10:11:00,57.0,52.0,30.18,NE,35,0.0,0.0,82,0.00,,,0.00,,2013-03-10 14:11:00,
2013-03-10 10:21:00,58.0,53.0,30.18,ENE,60,0.0,0.0,82,0.00,,,0.00,,2013-03-10 14:21:00,
2013-03-10 10:32:00,58.0,52.0,30.18,ENE,60,0.0,0.0,81,0.00,,,0.00,,2013-03-10 14:32:00,
2013-03-10 10:42:00,58.0,52.0,30.18,ENE,60,0.0,0.0,81,0.00,,,0.00,,2013-03-10 14:42:00,
2013-03-10 10:51:00,60.0,53.0,30.18,ENE,60,0.0,0.0,79,0.00,,,0.00,,2013-03-10 14:51:00,
2013-03-10 11:01:00,63.0,53.0,30.18,ENE,60,0.0,0.0,70,0.00,,,0.00,,2013-03-10 15:01:00,
2013-03-10 11:11:00,63.0,53.0,30.18,ENE,60,0.0,0.0,70,0.00,,,0.00,,2013-03-10 15:11:00,
2013-03-10 11:21:00,63.0,53.0,30.18,ENE,60,0.0,0.0,70,0.00,,,0.00,,2013-03-10 15:21:00,
2013-03-10 11:32:00,64.0,54.0,30.18,East,90,0.0,5.0,69,0.00,,,0.00,,2013-03-10 15:32:00,
2013-03-10 11:42:00,64.0,54.0,30.18,East,90,0.0,5.0,69,0.00,,,0.00,,2013-03-10 15:42:00,
2013-03-10 11:51:00,65.0,53.0,30.18,ENE,60,3.0,5.0,65,0.00,,,0.00,,2013-03-10 15:51:00,
2013-03-10 12:02:00,67.0,53.0,30.18,East,80,3.0,8.0,60,0.00,,,0.00,,2013-03-10 16:02:00,
2013-03-10 12:12:00,67.0,53.0,30.18,East,80,3.0,8.0,60,0.00,,,0.00,,2013-03-10 16:12:00,
2013-03-10 12:21:00,67.0,53.0,30.15,ENE,70,6.0,8.0,60,0.00,,,0.00,,2013-03-10 16:21:00,
2013-03-10 12:32:00,69.0,53.0,30.15,ENE,70,7.0,8.0,57,0.00,,,0.00,,2013-03-10 16:32:00,
2013-03-10 12:41:00,69.0,53.0,30.15,ENE,70,7.0,8.0,57,0.00,,,0.00,,2013-03-10 16:41:00,
2013-03-10 12:51:00,69.0,53.0,30.15,ENE,70,7.0,8.0,57,0.00,,,0.00,,2013-03-10 16:51:00,
2013-03-10 13:01:00,69.0,52.0,30.15,East,80,8.0,8.0,54,0.00,,,0.00,,2013-03-10 17:01:00,
2013-03-10 13:11:00,69.0,52.0,30.15,East,80,8.0,8.0,54,0.00,,,0.00,,2013-03-10 17:11:00,
2013-03-10 13:21:00,70.0,52.0,30.15,ENE,65,7.0,7.0,52,0.00,,,0.00,,2013-03-10 17:21:00,
2013-03-10 13:32:00,71.0,52.0,30.12,East,80,6.0,6.0,52,0.00,,,0.00,,2013-03-10 17:32:00,
2013-03-10 13:41:00,71.0,52.0,30.12,East,80,6.0,6.0,52,0.00,,,0.00,,2013-03-10 17:41:00,
2013-03-10 13:51:00,71.0,51.0,30.12,East,80,6.0,6.0,49,0.00,,,0.00,,2013-03-10 17:51:00,
2013-03-10 14:01:00,72.0,50.0,30.12,ENE,70,6.0,6.0,46,0.00,,,0.00,,2013-03-10 18:01:00,
2013-03-10 14:11:00,72.0,49.0,30.12,ESE,105,6.0,7.0,45,0.00,,,0.00,,2013-03-10 18:11:00,
2013-03-10 14:22:00,72.0,49.0,30.12,ESE,105,6.0,7.0,45,0.00,,,0.00,,2013-03-10 18:22:00,
2013-03-10 14:32:00,72.0,49.0,30.12,ESE,105,6.0,7.0,45,0.00,,,0.00,,2013-03-10 18:32:00,
2013-03-10 14:42:00,72.0,49.0,30.12,ESE,105,6.0,7.0,45,0.00,,,0.00,,2013-03-10 18:42:00,
2013-03-10 14:52:00,73.0,50.0,30.12,East,80,6.0,7.0,45,0.00,,,0.00,,2013-03-10 18:52:00,
2013-03-10 15:01:00,73.0,50.0,30.12,ESE,105,3.0,6.0,44,0.00,,,0.00,,2013-03-10 19:01:00,
2013-03-10 15:11:00,73.0,50.0,30.12,ESE,105,3.0,6.0,44,0.00,,,0.00,,2013-03-10 19:11:00,
2013-03-10 15:21:00,74.0,50.0,30.12,SE,125,5.0,7.0,43,0.00,,,0.00,,2013-03-10 19:21:00,
2013-03-10 15:32:00,75.0,49.0,30.12,East,90,5.0,7.0,40,0.00,,,0.00,,2013-03-10 19:32:00,
2013-03-10 15:42:00,75.0,49.0,30.12,East,90,5.0,7.0,40,0.00,,,0.00,,2013-03-10 19:42:00,
2013-03-10 15:53:00,76.0,49.0,30.12,SE,125,5.0,7.0,38,0.00,,,0.00,,2013-03-10 19:53:00,
2013-03-10 16:02:00,74.0,48.0,30.12,ESE,110,3.0,3.0,40,0.00,,,0.00,,2013-03-10 20:02:00,
2013-03-10 16:12:00,74.0,48.0,30.12,ESE,110,3.0,3.0,40,0.00,,,0.00,,2013-03-10 20:12:00,
2013-03-10 16:22:00,75.0,48.0,30.12,ESE,110,3.0,3.0,38,0.00,,,0.00,,2013-03-10 20:22:00,
2013-03-10 16:32:00,74.0,48.0,30.12,ESE,110,3.0,3.0,40,0.00,,,0.00,,2013-03-10 20:32:00,
2013-03-10 16:43:00,74.0,48.0,30.12,ESE,110,3.0,3.0,40,0.00,,,0.00,,2013-03-10 20:43:00,
2013-03-10 16:52:00,74.0,48.0,30.12,ESE,110,3.0,3.0,40,0.00,,,0.00,,2013-03-10 20:52:00,
2013-03-10 17:02:00,74.0,48.0,30.12,ESE,110,3.0,3.0,40,0.00,,,0.00,,2013-03-10 21:02:00,
2013-03-10 17:12:00,74.0,48.0,30.12,ESE,110,3.0,3.0,40,0.00,,,0.00,,2013-03-10 21:12:00,
2013-03-10 17:23:00,74.0,48.0,30.12,ESE,110,3.0,3.0,40,0.00,,,0.00,,2013-03-10 21:23:00,
2013-03-10 17:32:00,72.0,48.0,30.12,ESE,115,3.0,3.0,43,0.00,,,0.00,,2013-03-10 21:32:00,
2013-03-10 17:42:00,72.0,48.0,30.12,ESE,115,3.0,3.0,43,0.00,,,0.00,,2013-03-10 21:42:00,
2013-03-10 17:53:00,73.0,49.0,30.12,ESE,110,2.0,3.0,43,0.00,,,0.00,,2013-03-10 21:53:00,
2013-03-10 18:03:00,72.0,49.0,30.12,East,95,3.0,7.0,44,0.00,,,0.00,,2013-03-10 22:03:00,
2013-03-10 18:12:00,72.0,49.0,30.12,East,95,3.0,7.0,44,0.00,,,0.00,,2013-03-10 22:12:00,
2013-03-10 18:22:00,72.0,49.0,30.12,SE,130,3.0,5.0,44,0.00,,,0.00,,2013-03-10 22:22:00,
2013-03-10 18:32:00,71.0,49.0,30.12,East,85,5.0,6.0,45,0.00,,,0.00,,2013-03-10 22:32:00,
2013-03-10 18:43:00,71.0,49.0,30.12,East,85,5.0,6.0,45,0.00,,,0.00,,2013-03-10 22:43:00,
2013-03-10 18:52:00,71.0,49.0,30.12,East,85,5.0,6.0,45,0.00,,,0.00,,2013-03-10 22:52:00,
2013-03-10 19:03:00,70.0,48.0,30.12,East,90,2.0,2.0,46,0.00,,,0.00,,2013-03-10 23:03:00,
2013-03-10 19:12:00,69.0,48.0,30.12,ESE,105,1.0,1.0,48,0.00,,,0.00,,2013-03-10 23:12:00,
2013-03-10 19:23:00,69.0,48.0,30.12,ESE,105,1.0,1.0,48,0.00,,,0.00,,2013-03-10 23:23:00,
2013-03-10 19:33:00,67.0,48.0,30.12,ESE,110,1.0,1.0,51,0.00,,,0.00,,2013-03-10 23:33:00,
2013-03-10 19:42:00,67.0,48.0,30.12,ESE,110,1.0,1.0,51,0.00,,,0.00,,2013-03-10 23:42:00,
2013-03-10 19:52:00,67.0,49.0,30.12,ESE,110,1.0,0.0,52,0.00,,,0.00,,2013-03-10 23:52:00,
2013-03-10 20:02:00,67.0,49.0,30.12,ESE,110,1.0,0.0,52,0.00,,,0.00,,2013-03-11 00:02:00,
2013-03-10 20:12:00,67.0,49.0,30.12,ESE,110,1.0,0.0,52,0.00,,,0.00,,2013-03-11 00:12:00,
2013-03-10 20:23:00,66.0,50.0,30.12,ESE,110,0.0,0.0,56,0.00,,,0.00,,2013-03-11 00:23:00,
2013-03-10 20:33:00,65.0,49.0,30.12,ENE,75,0.0,0.0,56,0.00,,,0.00,,2013-03-11 00:33:00,
2013-03-10 20:43:00,65.0,49.0,30.12,ENE,75,0.0,0.0,56,0.00,,,0.00,,2013-03-11 00:43:00,
2013-03-10 20:53:00,65.0,50.0,30.12,East,90,0.0,0.0,58,0.00,,,0.00,,2013-03-11 00:53:00,
2013-03-10 21:03:00,64.0,50.0,30.12,East,90,0.0,0.0,60,0.00,,,0.00,,2013-03-11 01:03:00,
2013-03-10 21:13:00,64.0,50.0,30.12,East,90,0.0,0.0,60,0.00,,,0.00,,2013-03-11 01:13:00,
2013-03-10 21:23:00,64.0,50.0,30.12,East,90,0.0,0.0,60,0.00,,,0.00,,2013-03-11 01:23:00,
2013-03-10 21:32:00,64.0,51.0,30.12,East,90,0.0,0.0,63,0.00,,,0.00,,2013-03-11 01:32:00,
2013-03-10 21:42:00,64.0,51.0,30.12,East,90,0.0,0.0,63,0.00,,,0.00,,2013-03-11 01:42:00,
2013-03-10 21:52:00,64.0,52.0,30.12,East,90,0.0,0.0,64,0.00,,,0.00,,2013-03-11 01:52:00,
2013-03-10 22:03:00,63.0,51.0,30.12,East,90,0.0,0.0,65,0.00,,,0.00,,2013-03-11 02:03:00,
2013-03-10 22:12:00,63.0,51.0,30.12,East,90,0.0,0.0,65,0.00,,,0.00,,2013-03-11 02:12:00,
2013-03-10 22:23:00,63.0,51.0,30.12,East,90,0.0,0.0,66,0.00,,,0.00,,2013-03-11 02:23:00,
2013-03-10 22:32:00,63.0,51.0,30.12,East,90,0.0,0.0,66,0.00,,,0.00,,2013-03-11 02:32:00,
2013-03-10 22:42:00,63.0,51.0,30.12,East,90,0.0,0.0,66,0.00,,,0.00,,2013-03-11 02:42:00,
2013-03-10 22:52:00,63.0,51.0,30.12,East,90,0.0,0.0,66,0.00,,,0.00,,2013-03-11 02:52:00,
2013-03-10 23:02:00,63.0,51.0,30.12,East,90,0.0,0.0,66,0.00,,,0.00,,2013-03-11 03:02:00,
2013-03-10 23:12:00,63.0,51.0,30.12,East,90,0.0,0.0,66,0.00,,,0.00,,2013-03-11 03:12:00,
2013-03-10 23:22:00,63.0,51.0,30.12,East,90,0.0,0.0,66,0.00,,,0.00,,2013-03-11 03:22:00,
2013-03-10 23:32:00,63.0,51.0,30.12,East,90,0.0,0.0,66,0.00,,,0.00,,2013-03-11 03:32:00,
2013-03-10 23:42:00,63.0,51.0,30.12,East,90,0.0,0.0,66,0.00,,,0.00,,2013-03-11 03:42:00,
2013-03-10 23:52:00,63.0,51.0,30.12,East,90,0.0,0.0,66,0.00,,,0.00,,2013-03-11 03:52:00,